Weather in Flagstaff

United States     35°11′54″N   111°36′39″W
temp.,
°C
wind,
m/s
gust,
m/s
humid.,
%
clouds,
%
prec.,
mm/h
press.,
hPa
HPBL,
m
27 january, wed
wed2723:00−11w44859 0.0 102747
02:00−11wsw448512 0.0 102951
05:00−10wsw33749 0.0 103028
08:00−9wsw22680 0.0 103121
11:00−1ssw35639 0.0 1028417
14:00+1sse24740 0.0 1023417
17:00−1ese12840 0.0 102275
20:00−4ssw119021 0.0 102422
28 january, thu
thu2823:00−3sw226940 0.0 102522
02:00−2ssw1164100 0.0 102322
05:00−2ssw1162100 0.0 102222
08:00−2s1157100 0.0 102222
11:00+3sse1259100 0.0 1021145
14:00+6s2761100 0.0 1017628
17:00+3sse227385 0.0 101630
20:00−1wsw23689 0.0 101823
29 january, fri
fri2923:000sw514575 0.0 1017320
02:00+1sw920575 0.0 1016497
05:000sw7166440 0.0 1014424
08:00−1sw8177050 0.0 1013671
11:00+2ssw13216164 0.0 10111572
14:000sw9149053 2.4 10091098
17:00−1wsw8127876 5.9 10111073
20:00−4w599388 0.9 1015317
30 january, sat
sat3023:00−5wsw8138758 1.1 1018294
02:00−6w69850 0.0 1020158
05:00−6w57840 0.0 1022104
08:00−5w33690 0.0 102441
11:00+1nne22550 0.0 1024435
14:00+3ene23480 0.0 1021797
17:00+1ene34590 0.0 1021155
20:00−3e11840 0.0 102421
31 january, sun
sun3123:00−4ne11790 0.0 102621
02:00−4ne12770 0.0 102726
05:00−4ne22700 0.0 102729
08:00−4ene22750 0.0 102939
11:00+1ene34570 0.0 1027347
14:00+3ene44489 0.0 1024468
17:00+1ene34554 0.0 1023291
20:00−2ne12640 0.0 102623